Volver al catálogo

STARLINK-35284

ActivoComunicacionesVLEO
NORAD 65741·PAYLOAD·🇺🇸 United States

Lanzado Sep 25, 2025 desde Cape Canaveral Space Force Station

Loading…

Próximos Pases (próximas 24 horas)

TLE

ActualizadoSource: CelesTrak SupGP

Época: Sep 14, 2026, 21:06 UTC

1 65741C 25216H   26257.87965278 -.00024979  00000+0 -73783-3 0  2573
2 65741  53.1572 171.9748 0001474 102.2276 120.8219 15.34410363    15

Sigue STARLINK-35284 en tiempo real con AllMySat

Download on the App Store